Weather History for Melville Hall, Dominica

Change the Weather History Date:

Tuesday, November 12, 2013

  Actual Average Record
Temperature  
Mean Temperature 82 °F -  
Max Temperature 86 °F 82 °F 87 °F (1997)
Min Temperature 78 °F 74 °F 71 °F (2004)
Cooling Degree Days 17    
Growing Degree Days 32 (Base 50)    
Moisture  
Dew Point 75 °F    
Average Humidity 75    
Maximum Humidity 90    
Minimum Humidity 62    
Precipitation  
Precipitation 0.08 in 0.42 in - ()
Sea Level Pressure  
Sea Level Pressure 29.95 in    
Wind  
Wind Speed 13 mph ()    
Max Wind Speed 27 mph    
Max Gust Speed 25 mph    
Visibility 7.0 miles    
Events Rain    
Averages and records for this station are not official NWS values.
T = Trace of Precipitation, MM = Missing Value Source: Averaged Metar Reports

Daily Weather History Graph

Daily Weather History Graph

Search for Another Location

Airport:

Trip Planner

Search our weather history database for the weather conditions in past years. The results will help you decide how hot, cold, wet, or windy it might be!

Date:

Astronomy

Nov. 12, 2013 Rise Set
Actual Time 6:06 AM AST 5:32 PM AST
Civil Twilight 5:43 AM AST 5:54 PM AST
Nautical Twilight 5:17 AM AST 6:20 PM AST
Astronomical Twilight 4:51 AM AST 6:46 PM AST
Moon 2:03 PM AST (11/12) 1:36 AM AST (11/12)
Length of Visible Light 12h 11m
Length of Day
11h 26m
Waxing Gibbous, 75% of the Moon is Illuminated
Nov 12
Waxing Gibbous
Nov 17
Full
Nov 25
Last Quarter
Dec 2
New
Dec 9
First Quarter

Hourly Weather History & Observations

Time (AST) Temp. Heat Index Dew Point Humidity Pressure Visibility Wind Dir Wind Speed Gust Speed Precip Events Conditions
6:00 AM 82.4 °F 88.2 °F 73.4 °F 74% 29.95 in 6.2 mi East 13.8 mph - N/A   Scattered Clouds
7:00 AM 82.4 °F 88.2 °F 73.4 °F 74% 29.95 in 6.2 mi East 12.7 mph - N/A   Mostly Cloudy
8:00 AM 83 °F - 75 °F 70% 29.99 in 16 mi East 15.0 mph - -  
8:00 AM 82.4 °F 89.5 °F 75.2 °F 79% 29.98 in 6.2 mi East 15.0 mph - N/A   Mostly Cloudy
9:00 AM 86.0 °F 95.1 °F 75.2 °F 70% 29.98 in 6.2 mi East 13.8 mph - N/A   Scattered Clouds
10:00 AM 86.0 °F 95.1 °F 75.2 °F 70% 30.01 in 6.2 mi East 13.8 mph - N/A   Mostly Cloudy
11:00 AM 87 °F - 76 °F 62% 29.99 in 17 mi East 26.8 mph - -   Partly Cloudy
11:00 AM 86.0 °F 95.1 °F 75.2 °F 70% 29.98 in 6.2 mi East 13.8 mph - N/A   Scattered Clouds
12:00 PM 86.0 °F 93.4 °F 73.4 °F 66% 29.95 in 6.2 mi ESE 12.7 mph - N/A   Scattered Clouds
1:00 PM 86.0 °F 95.1 °F 75.2 °F 70% 29.92 in 6.2 mi ESE 12.7 mph - N/A   Mostly Cloudy
2:00 PM 86 °F - 75 °F 63% 29.92 in 10 mi East 26.8 mph - - Rain Light Rain Showers
2:00 PM 86.0 °F 95.1 °F 75.2 °F 70% 29.92 in 6.2 mi East 13.8 mph - N/A   Scattered Clouds
3:00 PM 84.2 °F 92.3 °F 75.2 °F 74% 29.89 in 6.2 mi East 12.7 mph - N/A   Scattered Clouds
4:00 PM 80.6 °F 86.2 °F 75.2 °F 84% 29.89 in 5.6 mi East 17.3 mph - N/A   Scattered Clouds
5:00 PM 82 °F - 74 °F 72% 29.91 in 6 mi East 20.1 mph - - Rain Light Rain Showers
5:00 PM 82.4 °F 89.5 °F 75.2 °F 79% 29.89 in 5.6 mi East 10.4 mph 25.3 mph N/A Rain Light Rain Showers
6:00 PM 82.4 °F 90.9 °F 77.0 °F 84% 29.92 in 3.7 mi ESE 8.1 mph - N/A   Scattered Clouds
7:00 PM 78.8 °F - 75.2 °F 89% 29.95 in 5.6 mi East 10.4 mph - N/A   Mostly Cloudy
8:00 PM 78 °F - 76 °F 90% 29.96 in 5 mi East 26.8 mph - - Rain Light Rain Showers
8:00 PM 78.8 °F - 75.2 °F 89% 29.95 in 5.0 mi East 13.8 mph - N/A Rain Light Rain Showers
9:00 PM 82.4 °F 89.5 °F 75.2 °F 79% 29.95 in 6.2 mi East 12.7 mph - N/A   Scattered Clouds
10:00 PM 82.4 °F 89.5 °F 75.2 °F 79% 29.95 in 6.2 mi East 17.3 mph - N/A   Scattered Clouds